This is the latest recevied weather packets stored in our database for station/object HI6LT. If no packets are shown the sender has not sent any weather packets the latest 10 day(s).
| Time | Temp. | Humidity | Pressure | Rain* | Wind** | Luminosity | Snow |
|---|---|---|---|---|---|---|---|
| 1777637618 | 13.33° C | 97% | 1033 hPa | 0 mm | - | - | - |
| 1777634886 | 13.33° C | 97% | 1032.8 hPa | 0 mm | - | - | - |
| 1777633898 | 13.33° C | 97% | 1033 hPa | 0 mm | - | - | - |
| 1777633554 | 13.33° C | 97% | 1032.6 hPa | 0 mm | - | - | - |
| 1777632218 | 13.89° C | 95% | 1032.1 hPa | 0 mm | - | - | - |
| 1777632106 | 13.33° C | 97% | 1032.8 hPa | 0 mm | - | - | - |
| 1777631556 | 13.33° C | 97% | 1032.7 hPa | 0 mm | - | - | - |
| 1777630304 | 13.33° C | 97% | 1032.6 hPa | 0 mm | - | - | - |
| 1777630027 | 13.89° C | 96% | 1032 hPa | 0 mm | - | - | - |
| 1777628864 | 13.33° C | 95% | 1032.2 hPa | 0 mm | - | - | - |
| 1777628503 | 13.89° C | 95% | 1032.1 hPa | 0 mm | - | - | - |
| 1777628183 | 13.89° C | 97% | 1032.1 hPa | 0 mm | - | - | - |
| 1777626702 | 13.89° C | 96% | 1032 hPa | 0 mm | - | - | - |
| 1777626383 | 13.89° C | 98% | 1032 hPa | 0 mm | - | - | - |
| 1777626162 | 13.89° C | 96% | 1032 hPa | 0 mm | - | - | - |
| 1777625174 | 13.33° C | 97% | 1031.6 hPa | 0 mm | - | - | - |
| 1777624901 | 13.89° C | 97% | 1032.1 hPa | 0 mm | - | - | - |
| 1777623460 | 13.89° C | 98% | 1032.2 hPa | 0 mm | - | - | - |
| 1777623377 | 13.89° C | 94% | 1031.4 hPa | 0 mm | - | - | - |
| 1777623099 | 13.89° C | 98% | 1032 hPa | 0 mm | - | - | - |
| 1777621298 | 13.33° C | 97% | 1031.6 hPa | 0 mm | - | - | - |
| 1777620983 | 15° C | 90% | 1031.8 hPa | 0 mm | - | - | - |
| 1777620758 | 13.33° C | 96% | 1031.4 hPa | 0 mm | - | - | - |
| 1777619500 | 13.89° C | 95% | 1032.4 hPa | 0 mm | - | - | - |
| 1777619497 | 13.89° C | 94% | 1031.4 hPa | 0 mm | - | - | - |
* Rain latest hour (hover to see other rain measurements)
** Current wind speed in m/s (hover to see current wind gust speed)